Location: Quaker Farms
(41.4276°N, 73.1557°W)
Time: 22:53:43
(UTC+00:00)

Vanguard 1 - Pass Details

Date: 19 June 2021
Orbit: 651 x 3832 km, 34.2° (Epoch: 25 July)

Event Time Altitude Azimuth Distance (km) Brightness Sun altitude
Rises 04:09:28 0° 257° (WSW) 7,945 14.7 -24.3°
Reaches altitude 10° 04:15:11 10° 256° (WSW) 6,781 14.3 -24.5°
Maximum altitude 04:36:05 67° 180° (S) 2,865 12.0 -25.0°
Drops below altitude 10° 04:48:02 10° 101° (ESE) 4,151 13.1 -25.1°
Sets 04:50:38 0° 99° (E) 4,825 13.5 -25.1°
